User: anonymous   Login
Location: ???????
(55.9142°N, 37.8256°E)
Time: 18:20:45
(UTC+00:00)
Language:

CZ-2D R/B - Orbit

View from above orbital plane
View from above orbital plane
View from above satellite
View from above satellite

Ground track
Ground track

The orbit data is extracted from the following two-line orbital elements,

1 37932U 11068C   25136.89071986  .00000143  00000-0  83227-4 0  9999
2 37932  98.8390  84.8820 0036060 322.5536 106.7165 14.22852054700123
Epoch (UTC): 16 May 2025 21:22:38
Eccentricity: 0.0036060
inclination: 98.8390°
perigee height: 790 km
apogee height: 841 km
right ascension of ascending node: 84.8820°
argument of perigee: 322.5536°
revolutions per day: 14.22852054
mean anomaly at epoch: 106.7165°
orbit number at epoch: 70012

The dashed part of the orbit path shows where the satellite is in the earth's shadow,  

DLR